Location: Bhog?puram
(16.7145°N, 81.0199°E)
Time: 08:43:00
(UTC+00:00)

Daily predictions for brighter satellites

Satellite Brightness Start Highest point End
(mag) Time Altitude Azimuth Time Altitude Azimuth Time Altitude Azimuth
Cosmos 1802 Rocket 4.1 12:46:26 10° N 12:52:50 73° E 12:59:13 10° S
SPOT 1/Viking Rocket 3.5 12:48:25 10° SSE 12:53:28 65° ENE 12:58:31 10° N
CZ-4 R/B 4.4 12:50:48 10° SSE 12:54:40 54° ENE 12:58:32 10° N
Resurs 1-3 4.1 12:51:20 10° SE 12:55:14 35° ENE 12:59:09 10° N
SJ-12 4.2 12:53:13 10° S 12:57:00 67° W 13:00:46 10° NNW
Cosmos 1025 Rocket 3.3 12:55:24 10° S 12:59:38 75° W 13:03:54 10° N
GPS 2-12 Rocket1 3.0 12:56:35 10° WNW 13:01:03 71° N 13:05:35 10° E
Cosmos 2333 4.4 12:57:15 10° NNW 13:02:49 77° WSW 13:08:23 10° S
Gbstr 26 Del rocket 4.1 12:57:22 10° SSW 13:03:05 59° SE 13:10:01 10° NE
Cosmos 2233 Rocket 4.2 13:00:01 10° N 13:06:07 53° E 13:12:14 10° SSE
COSMO-SKYMED 1 3.3 13:02:51 10° N 13:06:51 54° WNW 13:10:51 10° SSW
Cosmos 1725 Rocket 4.1 13:04:27 10° N 13:10:43 85° W 13:17:01 10° S
Cosmos 2360 Rocket 3.7 13:10:55 10° NW 13:16:08 41° WSW 13:21:23 10° S
Milstar 3 3.6 13:08:50 10° WNW 13:16:20 70° NNE 13:29:34 10° ESE
CZ-2D R/B 3.4 13:12:51 10° SSE 13:16:32 50° ENE 13:20:17 10° N
SL-08 R/B 4.4 13:11:27 10° N 13:17:34 84° E 13:23:38 10° S
GOES 2 Rocket 4.0 13:15:41 10° W 13:19:32 36° NNW 13:23:09 12° NE
Atlas Centaur 2 4.0 13:13:05 10° WNW 13:19:35 29° NNW 13:25:12 10° NE
Cosmos 2061 Rocket 4.0 13:13:58 10° N 13:20:12 61° E 13:26:20 10° SSE
BREEZE-M DEB (TANK) 4.1 13:22:00 10° W 13:23:56 20° NNW 13:27:10 10° NNE
Meteor 2-1 Rocket 4.3 13:27:48 10° N 13:33:38 67° E 13:39:31 10° SSE
CZ-3 Stage 3 3.2 13:17:15 10° WNW 13:33:55 59° NNE 13:37:19 22° E
Palapa 6 Rocket 4.2 13:28:02 10° WNW 13:34:08 58° N 13:38:52 22° E
Cosmos 2297 Rocket 3.8 13:29:06 10° SW 13:34:12 35° WNW 13:39:20 10° N
GPS 2-15 Rocket1 4.5 13:32:01 10° SW 13:35:58 26° SSE 13:38:16 18° ESE
Delta 198 4.4 13:29:45 10° WSW 13:36:02 77° NNW 13:40:15 22° ENE
CARTOSAT-1 3.4 13:32:08 10° SSE 13:36:17 66° ENE 13:40:26 10° N
Cosmos 1315 Rocket 3.8 13:37:11 10° NNW 13:40:49 45° W 13:44:27 10° SSW
Cosmos 2219 4.1 13:39:49 10° SSE 13:44:25 26° ESE 13:44:47 25° E
ATLAS 3B R/B 4.0 13:39:48 10° NW 13:46:42 44° WSW 13:53:06 10° S
Cosmos 1975 Rocket 3.0 13:48:13 10° S 13:52:36 89° WSW 13:56:58 10° N
NOAA 6 4.0 13:48:04 10° S 13:53:10 84° WSW 13:58:19 10° NNW
Cosmos 1346 Rocket 2.4 13:51:08 10° S 13:54:41 63° E 13:55:01 59° ENE
Helios 1A Rocket 4.2 13:51:52 10° NNW 13:54:47 31° WNW 13:57:42 10° SW
SL-19 R/B 4.5 13:48:48 10° SSE 13:55:07 89° ENE 14:01:19 10° NNW
USA 234 3.2 13:49:38 10° SE 13:56:10 84° NE 14:02:44 10° NW
YAOGAN 1 4.5 13:53:47 10° SSW 13:57:31 31° W 14:01:17 10° NW
BlueWalker 3 2.2 13:55:04 10° NNW 13:57:48 44° N 13:57:48 44° N
FALCON 9 R/B 4.4 13:50:53 10° WNW 14:00:21 82° NNE 14:46:11 10° ESE
Cosmos 1125 Rocket 3.5 13:57:54 10° N 14:02:57 51° ENE 14:04:40 36° SE
Cosmos 1602 4.5 14:00:24 10° SSW 14:02:57 34° W 14:03:51 26° NW
Meteor 1-27 4.3 13:59:17 10° N 14:04:59 58° E 14:10:41 10° SSE
Cosmos 783 Rocket 4.4 13:59:42 10° S 14:04:59 84° ESE 14:08:15 24° NNE
Cosmos 2263 Rocket 2.1 14:02:19 10° SSW 14:07:56 86° ESE 14:11:17 26° NNE
Cosmos 1455 Rocket 2.8 14:05:18 10° N 14:09:34 79° E 14:13:52 10° S
Ariane H10+ 3.9 14:06:38 10° SW 14:10:37 24° S 14:13:42 18° SE
Aureole 3 Rocket 3.5 14:11:11 10° NNW 14:14:09 39° W 14:17:00 10° SSW
COSMOS 2428 2.7 14:09:12 10° NNW 14:14:55 81° WSW 14:20:37 10° SSE
Cosmos 2082 4.4 14:10:26 10° S 14:14:14 35° SE 14:14:14 35° SE
Resurs 01 Rocket 2.5 14:12:31 10° S 14:16:44 48° W 14:20:57 10° NNW
Cosmos 2237 Rocket 4.3 14:19:27 10° N 14:20:09 13° N 14:20:09 13° N
ATLAS 5 CENTAUR R/B 2.9 14:25:51 10° NW 14:31:12 55° WSW 14:37:34 10° S
Cosmos 2227 Rocket 4.2 14:28:34 10° SW 14:33:09 26° WNW 14:37:46 10° NNW
USA 215 4.4 14:41:17 27° SSE 14:41:17 27° SSE 14:44:40 10° S
Cosmos 2285 Rocket 4.1 14:34:04 10° NNW 14:40:26 76° WSW 14:46:44 10° S
GPS 2-12 Rocket1 4.5 14:39:25 10° W 14:42:16 35° WSW 14:42:16 35° WSW
Atlas Centaur 2 4.3 15:04:09 10° NW 15:07:08 19° NNW 15:07:08 19° NNW
COSMOS 2455 4.2 22:26:42 33° ENE 22:26:42 33° ENE 22:30:36 10° NE
MAQSAT/ARIANE V 4.4 22:30:56 29° SSE 22:30:56 29° SSE 22:40:49 10° ESE
CZ-4C R/B 3.3 22:34:12 70° S 22:34:12 70° S 22:42:19 10° SSE
Aurora 2 Rocket 4.1 22:55:51 41° NNE 22:55:51 41° NNE 23:01:12 10° ENE
GPS 2-17 Rocket1 4.1 23:05:27 39° ENE 23:05:27 39° ENE 23:08:20 10° E
SL-16 R/B 3.1 23:02:01 10° S 23:06:13 43° SSW 23:06:13 43° SSW
SL-08 R/B 4.4 23:07:41 10° S 23:14:01 85° W 23:20:27 10° N
Cosmos 1934 Rocket 3.8 23:21:46 10° S 23:27:49 87° W 23:33:56 10° N
Cosmos 1727 Rocket 3.8 23:27:38 10° N 23:33:49 76° W 23:40:03 10° S
ATLAS 2A CENTAUR R/B 3.3 23:32:52 37° NW 23:34:47 52° N 23:38:09 10° E
Cosmos 1605 Rocket 4.4 23:36:46 10° S 23:43:04 66° E 23:49:23 10° NNE
ISS -4.0 23:47:38 62° WSW 23:48:06 77° NW 23:51:25 10° NE
NOAA 12 4.2 23:47:32 10° N 23:52:37 52° WNW 23:57:45 10° SSW
